contact:dominique.lefevre@mio.osupytheas.fr, maurice.libes@osupytheas.fr, didier.mallarino@osupytheas.fr
Project:EMSO http://www.emso-fr.org/EMSO-France
Depth: 2436.0 m
Title:EMSO Ligure Ouest : Data MII capteur AQUADOPP
Date,Latitude,Longitude,X_East,Y_North,Z_Up,Amplitude_X,Amplitude_Y,Amplitude_Z,Batterie,SoundSpeed,Heading,Pitch,Roll,Pressure,TIS,Speed,Direction
, degrees North, degrees East, m.s-1, m.s-1,m.s-1, 1, 1, 1, Volt, m.s-1, degree, degree, degree, dbar, degree_C, m.s-1, degree
2019-09-27T00:04:04,42.805,6.029,-0.026,0.002,-0.031,102.0,105.0,99.0,13.4,1505.1,324.2,-0.8,1.8,2470.542,13.27,0.026,274.4
2019-09-27T00:07:05,42.805,6.029,-0.036,0.009,-0.013,103.0,104.0,100.0,13.4,1505.2,328.6,-0.8,1.8,2470.368,13.29,0.037,284.0
2019-09-27T00:10:06,42.805,6.029,-0.019,-0.014,-0.009,103.0,107.0,100.0,13.4,1505.3,327.2,-0.7,1.8,2470.239,13.31,0.023,233.6
2019-09-27T00:13:07,42.805,6.029,-0.038,0.003,0.017,102.0,105.0,100.0,13.4,1505.3,328.1,-0.7,1.9,2470.11,13.31,0.038,274.5
2019-09-27T00:16:08,42.805,6.029,-0.031,0.005,-0.014,104.0,105.0,99.0,13.4,1505.3,323.5,-0.7,1.8,2469.977,13.32,0.031,279.2
2019-09-27T00:19:09,42.805,6.029,-0.004,0.002,-0.038,104.0,105.0,100.0,13.4,1505.3,324.6,-0.7,1.8,2469.936,13.33,0.004,296.6
2019-09-27T00:22:10,42.805,6.029,-0.015,-0.019,-0.021,104.0,104.0,100.0,13.3,1505.3,326.5,-0.8,1.8,2469.878,13.33,0.024,218.3
2019-09-27T00:25:11,42.805,6.029,-0.056,-0.009,-0.064,104.0,106.0,99.0,13.4,1505.3,325.1,-0.7,1.8,2469.856,13.33,0.056,260.9
2019-09-27T00:28:12,42.805,6.029,-0.037,-0.019,-0.025,103.0,105.0,99.0,13.3,1505.3,327.9,-0.7,1.8,2469.819,13.33,0.041,242.8
2019-09-27T00:31:13,42.805,6.029,-0.026,0.001,-0.039,104.0,107.0,101.0,13.3,1505.4,327.6,-0.7,1.9,2469.804,13.34,0.026,272.2
2019-09-27T00:34:14,42.805,6.029,-0.037,0.014,-0.079,103.0,106.0,102.0,13.4,1505.4,326.5,-0.7,1.9,2469.805,13.34,0.039,290.7
2019-09-27T00:37:15,42.805,6.029,-0.026,-0.001,-0.021,104.0,105.0,99.0,13.3,1505.4,323.1,-0.7,1.8,2469.786,13.34,0.026,267.8
2019-09-27T00:40:16,42.805,6.029,-0.021,0.0,-0.025,103.0,105.0,100.0,13.4,1505.4,328.2,-0.7,1.8,2469.78,13.34,0.021,270.0
2019-09-27T00:43:17,42.805,6.029,-0.036,-0.015,-0.032,105.0,106.0,100.0,13.4,1505.4,328.1,-0.7,1.8,2469.831,13.34,0.039,247.4
2019-09-27T00:46:18,42.805,6.029,-0.037,-0.002,-0.009,104.0,106.0,99.0,13.4,1505.4,327.7,-0.7,1.8,2469.791,13.34,0.037,266.9
2019-09-27T00:49:19,42.805,6.029,-0.032,-0.004,-0.009,103.0,104.0,100.0,13.3,1505.4,324.5,-0.7,1.8,2469.79,13.34,0.032,262.9
2019-09-27T00:52:20,42.805,6.029,-0.01,-0.001,0.011,103.0,105.0,100.0,13.3,1505.4,326.2,-0.8,1.8,2469.768,13.34,0.01,264.3
2019-09-27T00:55:21,42.805,6.029,-0.034,-0.012,-0.037,103.0,105.0,100.0,13.4,1505.4,328.7,-0.7,1.9,2469.798,13.34,0.036,250.6
2019-09-27T00:58:22,42.805,6.029,-0.021,0.007,-0.047,103.0,104.0,100.0,13.4,1505.4,326.7,-0.7,1.8,2469.809,13.34,0.022,288.4
2019-09-27T01:01:23,42.805,6.029,-0.027,-0.019,-0.022,104.0,106.0,99.0,13.3,1505.4,325.1,-0.7,1.9,2469.824,13.34,0.033,234.9
2019-09-27T01:04:24,42.805,6.029,-0.027,0.035,-0.004,103.0,105.0,99.0,13.4,1505.4,325.6,-0.7,1.9,2469.798,13.34,0.044,322.3
2019-09-27T01:07:25,42.805,6.029,-0.047,-0.013,-0.035,104.0,104.0,100.0,13.4,1505.4,324.5,-0.7,1.8,2469.829,13.34,0.048,254.5
2019-09-27T01:10:26,42.805,6.029,-0.049,0.016,-0.018,110.0,105.0,102.0,13.4,1505.4,324.7,-0.7,1.8,2469.83,13.34,0.051,288.1
2019-09-27T01:13:27,42.805,6.029,-0.016,0.015,-0.001,104.0,105.0,99.0,13.4,1505.4,325.3,-0.7,1.9,2469.879,13.34,0.021,313.1
2019-09-27T01:16:28,42.805,6.029,-0.039,0.015,-0.047,102.0,105.0,101.0,13.4,1505.4,325.1,-0.7,1.8,2469.847,13.34,0.041,291.0
2019-09-27T01:19:29,42.805,6.029,-0.055,0.0,-0.044,102.0,105.0,102.0,13.3,1505.4,326.3,-0.7,1.8,2469.864,13.34,0.055,270.0
2019-09-27T01:22:30,42.805,6.029,-0.013,0.004,-0.012,104.0,106.0,101.0,13.4,1505.4,326.3,-0.7,1.8,2469.844,13.34,0.013,287.1
2019-09-27T01:25:31,42.805,6.029,-0.032,0.011,0.002,103.0,106.0,100.0,13.4,1505.4,326.8,-0.7,1.8,2469.829,13.34,0.033,289.0
2019-09-27T01:28:32,42.805,6.029,-0.022,-0.027,-0.03,104.0,106.0,100.0,13.4,1505.4,324.9,-0.8,1.8,2469.856,13.34,0.034,219.2
2019-09-27T01:31:33,42.805,6.029,-0.029,0.008,-0.03,103.0,105.0,100.0,13.4,1505.4,324.2,-0.7,1.8,2469.879,13.34,0.03,285.4
2019-09-27T01:34:34,42.805,6.029,-0.034,0.008,-0.013,103.0,105.0,100.0,13.4,1505.4,328.3,-0.7,1.8,2469.871,13.34,0.034,283.2
2019-09-27T01:37:35,42.805,6.029,-0.043,0.003,-0.022,104.0,104.0,100.0,13.3,1505.4,325.2,-0.7,1.8,2469.887,13.34,0.043,274.0
2019-09-27T01:40:36,42.805,6.029,-0.013,-0.005,-0.019,105.0,104.0,100.0,13.4,1505.4,326.9,-0.7,1.8,2469.801,13.34,0.013,249.0
2019-09-27T01:43:37,42.805,6.029,-0.009,0.003,0.004,104.0,104.0,101.0,13.4,1505.4,326.9,-0.7,1.8,2469.894,13.34,0.009,288.4
2019-09-27T01:46:38,42.805,6.029,-0.023,-0.002,-0.041,104.0,105.0,101.0,13.4,1505.4,325.2,-0.7,1.9,2469.881,13.34,0.023,265.0
2019-09-27T01:49:39,42.805,6.029,-0.015,-0.01,-0.028,104.0,105.0,100.0,13.4,1505.4,325.4,-0.7,1.8,2469.869,13.34,0.018,236.3
2019-09-27T01:52:40,42.805,6.029,-0.029,-0.005,-0.019,106.0,105.0,100.0,13.3,1505.4,323.2,-0.7,1.8,2469.882,13.34,0.029,260.2
2019-09-27T01:55:41,42.805,6.029,-0.003,0.019,-0.005,103.0,105.0,100.0,13.3,1505.4,325.4,-0.7,1.8,2469.897,13.34,0.019,351.0
2019-09-27T01:58:42,42.805,6.029,-0.003,0.002,0.017,103.0,105.0,99.0,13.4,1505.4,328.2,-0.7,1.8,2469.859,13.34,0.003,303.7
2019-09-27T02:01:43,42.805,6.029,-0.03,0.01,-0.044,101.0,105.0,99.0,13.4,1505.4,323.8,-0.7,1.8,2469.917,13.34,0.031,288.4
2019-09-27T02:04:44,42.805,6.029,-0.014,0.018,-0.006,103.0,105.0,98.0,13.4,1505.4,326.8,-0.7,1.8,2469.914,13.34,0.022,322.1
2019-09-27T02:07:45,42.805,6.029,-0.034,0.013,-0.009,103.0,107.0,98.0,13.4,1505.4,324.4,-0.7,1.8,2469.937,13.34,0.036,290.9
2019-09-27T02:10:46,42.805,6.029,-0.022,0.019,-0.031,102.0,106.0,100.0,13.4,1505.4,327.2,-0.7,1.8,2469.928,13.34,0.029,310.8
2019-09-27T02:13:47,42.805,6.029,-0.056,0.006,-0.018,103.0,107.0,100.0,13.4,1505.4,324.7,-0.7,1.9,2469.902,13.34,0.056,276.1
2019-09-27T02:16:48,42.805,6.029,-0.032,-0.005,-0.022,103.0,103.0,100.0,13.4,1505.3,324.1,-0.7,1.8,2469.9,13.33,0.032,261.1
2019-09-27T02:19:49,42.805,6.029,-0.024,0.027,0.006,102.0,107.0,99.0,13.4,1505.4,328.6,-0.7,1.8,2469.921,13.34,0.036,318.4
2019-09-27T02:22:50,42.805,6.029,-0.016,0.006,0.007,103.0,106.0,99.0,13.3,1505.4,325.6,-0.7,1.9,2469.917,13.34,0.017,290.6
2019-09-27T02:25:51,42.805,6.029,-0.023,0.005,-0.033,103.0,107.0,99.0,13.4,1505.4,324.0,-0.7,1.9,2469.93,13.34,0.023,282.3
2019-09-27T02:28:52,42.805,6.029,-0.039,0.007,-0.012,104.0,106.0,100.0,13.4,1505.3,325.1,-0.7,1.8,2469.933,13.33,0.039,280.2
2019-09-27T02:31:53,42.805,6.029,-0.018,-0.008,-0.019,103.0,106.0,100.0,13.4,1505.3,326.6,-0.7,1.8,2469.903,13.33,0.019,246.0
2019-09-27T02:34:54,42.805,6.029,-0.022,0.033,-0.014,105.0,106.0,100.0,13.4,1505.3,326.4,-0.7,1.8,2469.972,13.33,0.039,326.3
2019-09-27T02:37:55,42.805,6.029,-0.022,0.0,-0.01,104.0,105.0,101.0,13.4,1505.3,326.8,-0.7,1.8,2469.942,13.33,0.022,270.0
2019-09-27T02:40:56,42.805,6.029,-0.043,0.004,-0.032,104.0,105.0,99.0,13.4,1505.4,327.1,-0.7,1.9,2469.935,13.34,0.043,275.3
2019-09-27T02:43:57,42.805,6.029,0.0,0.017,-0.005,104.0,106.0,100.0,13.4,1505.4,323.8,-0.7,1.8,2469.909,13.34,0.017,0.0
2019-09-27T02:46:58,42.805,6.029,-0.059,0.018,-0.053,103.0,105.0,99.0,13.3,1505.4,323.7,-0.7,1.8,2469.953,13.34,0.061,287.0
2019-09-27T02:49:59,42.805,6.029,-0.047,-0.001,0.001,102.0,106.0,99.0,13.3,1505.4,325.4,-0.7,1.8,2469.994,13.34,0.047,268.8
2019-09-27T02:53:00,42.805,6.029,-0.031,0.003,-0.023,103.0,106.0,100.0,13.3,1505.4,325.6,-0.7,1.8,2469.997,13.34,0.031,275.5
2019-09-27T02:56:01,42.805,6.029,-0.032,0.021,-0.044,103.0,106.0,99.0,13.4,1505.4,326.9,-0.7,1.8,2469.974,13.34,0.038,303.3
2019-09-27T02:59:02,42.805,6.029,-0.038,0.01,-0.01,103.0,105.0,99.0,13.4,1505.4,327.6,-0.7,1.8,2470.009,13.34,0.039,284.7
2019-09-27T03:02:03,42.805,6.029,-0.057,0.0,-0.012,103.0,105.0,99.0,13.4,1505.4,324.9,-0.7,1.8,2469.95,13.34,0.057,270.0
2019-09-27T03:05:04,42.805,6.029,-0.031,0.007,-0.029,103.0,105.0,99.0,13.3,1505.4,325.2,-0.7,1.9,2469.97,13.34,0.031,282.7
2019-09-27T03:08:05,42.805,6.029,-0.024,0.024,-0.028,103.0,106.0,99.0,13.4,1505.4,323.3,-0.7,1.8,2469.965,13.34,0.033,315.0
2019-09-27T03:11:06,42.805,6.029,-0.061,0.021,-0.023,103.0,106.0,100.0,13.4,1505.4,328.4,-0.7,1.8,2470.002,13.34,0.064,289.0
2019-09-27T03:14:07,42.805,6.029,-0.035,0.013,-0.015,102.0,106.0,100.0,13.4,1505.4,324.8,-0.7,1.8,2469.984,13.34,0.037,290.4
2019-09-27T03:17:08,42.805,6.029,-0.054,0.004,-0.026,102.0,106.0,99.0,13.4,1505.4,327.4,-0.7,1.8,2469.994,13.34,0.054,274.2
2019-09-27T03:20:09,42.805,6.029,-0.042,0.014,-0.013,102.0,105.0,100.0,13.3,1505.4,323.9,-0.7,1.8,2469.953,13.34,0.044,288.4
2019-09-27T03:23:10,42.805,6.029,-0.08,0.011,-0.068,103.0,106.0,100.0,13.4,1505.3,323.7,-0.7,1.8,2470.005,13.33,0.08,277.8
2019-09-27T03:26:11,42.805,6.029,-0.033,0.022,-0.015,103.0,107.0,100.0,13.4,1505.3,326.4,-0.7,1.8,2469.992,13.33,0.039,303.7
2019-09-27T03:29:12,42.805,6.029,-0.03,0.004,-0.017,104.0,108.0,99.0,13.4,1505.3,325.8,-0.7,1.8,2470.011,13.33,0.03,277.6
2019-09-27T03:32:13,42.805,6.029,-0.059,0.003,-0.045,104.0,108.0,100.0,13.3,1505.3,326.5,-0.7,1.8,2470.022,13.33,0.059,272.9
2019-09-27T03:35:14,42.805,6.029,-0.017,0.013,-0.006,103.0,106.0,100.0,13.4,1505.4,325.4,-0.7,1.8,2470.01,13.34,0.021,307.4
2019-09-27T03:38:15,42.805,6.029,-0.032,0.004,-0.016,103.0,107.0,100.0,13.4,1505.4,326.0,-0.7,1.8,2469.996,13.34,0.032,277.1
2019-09-27T03:41:16,42.805,6.029,-0.025,0.011,-0.002,102.0,106.0,101.0,13.3,1505.4,326.6,-0.7,1.8,2470.0,13.34,0.027,293.7
2019-09-27T03:44:17,42.805,6.029,-0.021,0.004,-0.009,105.0,106.0,100.0,13.4,1505.4,325.3,-0.7,1.8,2470.028,13.34,0.021,280.8
2019-09-27T03:47:18,42.805,6.029,-0.076,0.025,-0.016,102.0,107.0,99.0,13.3,1505.4,326.1,-0.7,1.8,2470.032,13.34,0.08,288.2
2019-09-27T03:50:19,42.805,6.029,-0.037,0.019,-0.034,105.0,107.0,101.0,13.3,1505.4,326.7,-0.7,1.8,2470.066,13.34,0.041,297.2
2019-09-27T03:53:20,42.805,6.029,-0.029,0.008,-0.007,103.0,108.0,100.0,13.3,1505.4,326.6,-0.7,1.8,2470.011,13.34,0.03,285.4
2019-09-27T03:56:21,42.805,6.029,-0.007,0.006,0.013,103.0,107.0,100.0,13.4,1505.4,326.8,-0.7,1.8,2470.028,13.34,0.009,310.6
2019-09-27T03:59:22,42.805,6.029,-0.029,-0.007,0.001,101.0,107.0,100.0,13.4,1505.4,325.9,-0.7,1.8,2470.025,13.34,0.029,256.4
2019-09-27T04:02:23,42.805,6.029,-0.009,0.004,-0.004,103.0,107.0,100.0,13.3,1505.4,327.0,-0.7,1.8,2470.041,13.34,0.009,294.0
2019-09-27T04:05:24,42.805,6.029,-0.022,0.034,-0.012,103.0,106.0,99.0,13.4,1505.4,324.9,-0.7,1.8,2470.045,13.34,0.04,327.1
2019-09-27T04:08:25,42.805,6.029,-0.044,0.022,-0.029,103.0,108.0,99.0,13.4,1505.4,326.2,-0.7,1.8,2470.08,13.34,0.049,296.6
2019-09-27T04:11:26,42.805,6.029,-0.012,0.005,-0.008,101.0,108.0,99.0,13.4,1505.4,323.0,-0.7,1.8,2470.11,13.34,0.013,292.6
2019-09-27T04:14:27,42.805,6.029,-0.022,-0.007,-0.011,102.0,106.0,99.0,13.4,1505.4,323.1,-0.7,1.8,2470.032,13.34,0.023,252.4
2019-09-27T04:17:28,42.805,6.029,-0.034,0.005,-0.014,102.0,107.0,100.0,13.3,1505.4,326.1,-0.7,1.8,2470.033,13.34,0.034,278.4
2019-09-27T04:20:29,42.805,6.029,-0.005,-0.006,0.018,104.0,108.0,99.0,13.4,1505.4,326.5,-0.7,1.8,2470.033,13.34,0.007,219.8
2019-09-27T04:23:30,42.805,6.029,-0.021,0.022,-0.025,102.0,108.0,99.0,13.4,1505.4,324.4,-0.7,1.9,2470.055,13.34,0.03,316.3
2019-09-27T04:26:31,42.805,6.029,-0.015,0.021,-0.007,106.0,108.0,98.0,13.4,1505.4,323.6,-0.7,1.8,2470.078,13.34,0.025,324.5
2019-09-27T04:29:32,42.805,6.029,-0.004,0.013,-0.009,104.0,107.0,99.0,13.3,1505.4,327.2,-0.7,1.8,2470.073,13.34,0.013,342.9
2019-09-27T04:32:33,42.805,6.029,-0.009,0.036,-0.002,103.0,106.0,99.0,13.3,1505.4,328.5,-0.7,1.9,2470.067,13.34,0.037,346.0
2019-09-27T04:35:34,42.805,6.029,-0.025,0.001,-0.016,101.0,107.0,99.0,13.4,1505.4,324.5,-0.7,1.8,2470.11,13.34,0.025,272.3
2019-09-27T04:38:35,42.805,6.029,-0.002,0.02,-0.024,102.0,107.0,99.0,13.3,1505.4,326.6,-0.7,1.8,2470.094,13.34,0.02,354.3
2019-09-27T04:41:36,42.805,6.029,-0.033,0.023,-0.031,101.0,107.0,100.0,13.4,1505.4,325.3,-0.7,1.8,2470.06,13.34,0.04,304.9
2019-09-27T04:44:37,42.805,6.029,-0.023,0.016,0.003,103.0,107.0,100.0,13.4,1505.4,323.2,-0.7,1.8,2470.072,13.34,0.028,304.8
2019-09-27T04:47:38,42.805,6.029,-0.035,0.02,-0.019,103.0,108.0,99.0,13.3,1505.4,323.8,-0.7,1.8,2470.084,13.34,0.04,299.7
2019-09-27T04:50:39,42.805,6.029,-0.015,-0.003,-0.017,104.0,108.0,99.0,13.4,1505.4,323.8,-0.7,1.9,2470.078,13.34,0.015,258.7
2019-09-27T04:53:40,42.805,6.029,-0.009,0.026,-0.001,102.0,109.0,99.0,13.4,1505.4,323.7,-0.7,1.8,2470.123,13.34,0.027,340.9
2019-09-27T04:56:41,42.805,6.029,-0.042,0.009,-0.025,101.0,107.0,99.0,13.4,1505.4,328.0,-0.7,1.8,2470.111,13.34,0.042,282.1
2019-09-27T04:59:42,42.805,6.029,0.001,0.014,-0.031,101.0,107.0,99.0,13.3,1505.4,323.7,-0.7,1.8,2470.084,13.34,0.014,4.1
2019-09-27T05:02:43,42.805,6.029,-0.007,0.018,-0.027,102.0,108.0,100.0,13.4,1505.4,325.0,-0.7,1.8,2470.07,13.34,0.019,338.8
2019-09-27T05:05:44,42.805,6.029,-0.012,0.006,-0.022,102.0,107.0,99.0,13.4,1505.4,324.0,-0.7,1.8,2470.088,13.34,0.013,296.6
2019-09-27T05:08:45,42.805,6.029,-0.024,-0.001,-0.053,102.0,109.0,100.0,13.3,1505.4,326.2,-0.7,1.8,2470.068,13.34,0.024,267.6
2019-09-27T05:11:46,42.805,6.029,0.01,0.012,-0.007,102.0,108.0,100.0,13.4,1505.4,326.6,-0.7,1.9,2470.095,13.34,0.015,39.8
2019-09-27T05:14:47,42.805,6.029,-0.014,0.036,-0.027,104.0,108.0,99.0,13.4,1505.3,327.0,-0.7,1.8,2470.127,13.33,0.038,338.8
2019-09-27T05:17:48,42.805,6.029,-0.018,0.033,-0.013,102.0,108.0,99.0,13.3,1505.3,325.1,-0.7,1.8,2470.116,13.33,0.037,331.4
2019-09-27T05:20:49,42.805,6.029,-0.028,0.005,-0.039,103.0,107.0,99.0,13.4,1505.3,327.0,-0.7,1.8,2470.087,13.33,0.028,280.1
2019-09-27T05:23:50,42.805,6.029,-0.023,0.003,-0.014,101.0,108.0,100.0,13.4,1505.3,325.9,-0.7,1.9,2470.094,13.33,0.023,277.4
2019-09-27T05:26:51,42.805,6.029,-0.013,0.017,-0.01,103.0,108.0,99.0,13.4,1505.3,325.6,-0.7,1.8,2470.118,13.33,0.021,322.6
2019-09-27T05:29:52,42.805,6.029,-0.032,0.004,-0.004,103.0,107.0,100.0,13.4,1505.4,325.7,-0.7,1.9,2470.113,13.34,0.032,277.1
2019-09-27T05:32:53,42.805,6.029,-0.003,0.007,0.027,102.0,107.0,99.0,13.3,1505.4,323.9,-0.7,1.8,2470.106,13.34,0.007,336.8
2019-09-27T05:35:54,42.805,6.029,-0.016,0.013,-0.018,103.0,107.0,100.0,13.3,1505.4,327.0,-0.7,1.8,2470.073,13.34,0.02,309.1
2019-09-27T05:38:55,42.805,6.029,-0.048,0.019,-0.006,101.0,108.0,100.0,13.3,1505.3,323.4,-0.7,1.8,2470.114,13.33,0.051,291.6
2019-09-27T05:41:56,42.805,6.029,-0.019,0.019,0.0,102.0,108.0,99.0,13.4,1505.3,324.5,-0.7,1.8,2470.132,13.33,0.026,315.0
2019-09-27T05:44:57,42.805,6.029,-0.002,0.024,-0.025,103.0,107.0,100.0,13.4,1505.3,326.6,-0.7,1.8,2470.098,13.33,0.024,355.2
2019-09-27T05:47:58,42.805,6.029,-0.018,0.026,-0.005,101.0,108.0,100.0,13.4,1505.3,323.5,-0.7,1.8,2470.107,13.33,0.031,325.3
2019-09-27T05:50:59,42.805,6.029,-0.01,0.013,0.014,101.0,108.0,99.0,13.4,1505.3,324.7,-0.8,1.8,2470.098,13.33,0.016,322.4
2019-09-27T05:54:00,42.805,6.029,-0.023,0.022,0.0,102.0,109.0,99.0,13.3,1505.3,326.7,-0.7,1.8,2470.128,13.33,0.031,313.7
2019-09-27T05:57:01,42.805,6.029,-0.015,0.005,-0.037,100.0,108.0,100.0,13.4,1505.3,326.0,-0.7,1.9,2470.164,13.33,0.015,288.4
2019-09-27T06:00:02,42.805,6.029,-0.035,0.006,0.0,102.0,107.0,99.0,13.4,1505.3,328.1,-0.7,1.8,2470.111,13.33,0.035,279.7
2019-09-27T06:03:03,42.805,6.029,-0.022,0.019,-0.019,102.0,108.0,99.0,13.4,1505.3,325.6,-0.7,1.8,2470.133,13.33,0.029,310.8
2019-09-27T06:06:04,42.805,6.029,-0.004,0.013,0.022,102.0,108.0,100.0,13.4,1505.3,328.6,-0.7,1.8,2470.107,13.33,0.013,342.9
2019-09-27T06:09:05,42.805,6.029,-0.025,0.021,-0.01,100.0,110.0,100.0,13.4,1505.3,327.8,-0.8,1.8,2470.155,13.33,0.032,310.0
2019-09-27T06:12:06,42.805,6.029,-0.009,0.023,0.012,103.0,109.0,99.0,13.4,1505.3,323.8,-0.8,1.9,2470.093,13.33,0.024,338.6
2019-09-27T06:15:07,42.805,6.029,-0.013,0.005,-0.005,102.0,107.0,99.0,13.4,1505.3,324.4,-0.7,1.8,2470.127,13.33,0.013,291.0
2019-09-27T06:18:08,42.805,6.029,-0.034,0.006,0.0,103.0,108.0,99.0,13.3,1505.4,327.2,-0.7,1.8,2470.082,13.34,0.034,280.0
2019-09-27T06:21:09,42.805,6.029,-0.016,0.022,-0.024,103.0,108.0,100.0,13.4,1505.3,327.2,-0.7,1.9,2470.101,13.33,0.027,324.0
2019-09-27T06:24:10,42.805,6.029,-0.008,0.017,0.022,103.0,109.0,100.0,13.3,1505.3,326.3,-0.7,1.8,2470.116,13.33,0.018,334.8
